Regional Weather Roundup
Issued by NWS

Home | Current Version | Previous Version | Text Only | Print | Product List | Glossary Off
Versions: 1 2 3 4 5 6 7 8 9 10 11 12 13 14 15 16 17 18 19 20 21 22 23 24 25 26 27 28 29 30 31 32 33 34 35 36 37 38 39 40 41 42 43 44 45 46 47 48 49 50

000
ASUS43 KBIS 230559
RWRND

NORTH DAKOTA REGIONAL WEATHER ROUNDUP
NATIONAL WEATHER SERVICE BISMARCK ND
100 AM CDT WED JUL 23 2014

NOTE: "FAIR" INDICATES FEW OR NO CLOUDS BELOW 12,000 FEET WITH NO
SIGNIFICANT WEATHER AND/OR OBSTRUCTIONS TO VISIBILITY.


NDZ001>003-009>011-017-230700-
NORTHWEST NORTH DAKOTA

CITY           SKY/WX    TMP DP  RH WIND       PRES   REMARKS
WILLISTON      CLOUDY    72  63  73 E9        30.24R
6HR MIN TEMP:  72; 6HR MAX TEMP:  84;

MINOT          MOCLDY    67  59  75 CALM      30.25S
$$

NDZ018>021-031>035-040>046-230700-
SOUTHWEST NORTH DAKOTA

CITY           SKY/WX    TMP DP  RH WIND       PRES   REMARKS
BISMARCK       PTCLDY    67  61  81 E7        30.26R
6HR MIN TEMP:  67; 6HR MAX TEMP:  80;

DICKINSON      PTCLDY    63  60  90 E3        30.26R
GARRISON         N/A     68  65  90 CALM      30.26R
6HR MIN TEMP:  68; 6HR MAX TEMP:  78;

HETTINGER ARPT PTCLDY    61  58  90 CALM      30.28R
$$

NDZ004>008-012>016-024-026-027-054-230700-
NORTHEAST NORTH DAKOTA

CITY           SKY/WX    TMP DP  RH WIND       PRES   REMARKS
GRAND FORKS    PTCLDY    61  59  93 CALM      30.25R
DEVILS LAKE    MOCLDY    66  57  72 E7        30.27R
$$

NDZ022-023-025-028>030-036>039-047>053-230700-
SOUTHEAST NORTH DAKOTA

CITY           SKY/WX    TMP DP  RH WIND       PRES   REMARKS
FARGO          CLEAR     62  57  83 W3        30.25S
6HR MIN TEMP:  61; 6HR MAX TEMP:  77;

$$




USA.gov is the U.S. government's official web portal to all federal, state and local government web resources and services.